sat.trackr.live / text

‹ back to catalog

STARLINK-5399

NORAD 54788 · 2022-175AG

PAYLOAD ACTIVE UNKNOWN

§ Identity

Operator
Country
US
Launch date
2022-12-17
Launch site
AFETR
Launch vehicle
Mass (kg)
RCS (m²)

Purposes: comms

External: N2YO · Heavens-Above · Gunter

§ Orbital elements

Epoch: 2026-05-25T00:18:53.001216Z

Period
95.44 min
Inclination
53.2146°
Eccentricity
0.0001562
Mean motion
15.08835691 rev/d
Perigee alt
538.7 km
Apogee alt
540.8 km
Semi-major
6,917.9 km
B*
9.1547e-6
RAAN
46.3592°
Arg perigee
86.7313°
Mean anomaly
273.3857°
Rev number
19,165

§ Raw data

STARLINK-53991 54788U 22175AG  26145.01311344 -.00000142  00000+0  91547-5 0  99922 54788  53.2146  46.3592 0001562  86.7313 273.3857 15.08835691191659

JSON: /api/v1/satellites/54788 · /tle

For live sub-satellite position, see the globe view (requires WebGL).

§ Visibility from observer

Set your observer location to see the next 7 days of passes ≥ 10°. The values pass through the URL so the page stays shareable.

No JS? Fill the form by hand. The geolocation button needs JavaScript.